TimeEST,TemperatureF,Dew PointF,Humidity,Sea Level PressureIn,VisibilityMPH,Wind Direction,Wind SpeedMPH,Gust SpeedMPH,PrecipitationIn,Events,Conditions,WindDirDegrees,DateUTC
12:09 AM,15.8,12.2,86,30.05,2.0,West,5.8,-,0.00,Snow,Light Snow,270,2013-01-24 05:09:00
12:30 AM,15.8,12.2,86,30.05,1.8,WNW,6.9,-,0.00,Snow,Light Snow,290,2013-01-24 05:30:00
12:53 AM,17.1,12.9,84,30.11,1.2,West,6.9,-,0.00,Snow,Light Snow,280,2013-01-24 05:53:00
1:12 AM,17.6,14.0,86,30.06,1.0,WNW,5.8,-,0.00,Snow,Light Snow,290,2013-01-24 06:12:00
1:36 AM,17.6,14.0,86,30.06,1.2,WNW,9.2,-,0.00,Snow,Light Snow,290,2013-01-24 06:36:00
1:53 AM,17.1,14.0,88,30.14,1.2,WNW,9.2,-,0.01,Snow,Light Snow,290,2013-01-24 06:53:00
2:23 AM,17.6,12.2,79,30.10,2.0,NW,10.4,-,0.00,Snow,Light Snow,310,2013-01-24 07:23:00
2:39 AM,17.6,12.2,79,30.11,4.0,NW,12.7,-,0.00,Snow,Light Snow,320,2013-01-24 07:39:00
2:53 AM,16.0,12.0,84,30.19,8.0,NNW,15.0,20.7,0.00,,Overcast,330,2013-01-24 07:53:00
3:29 AM,15.8,8.6,73,30.16,10.0,NW,13.8,-,0.00,,Overcast,320,2013-01-24 08:29:00
3:53 AM,14.0,9.0,80,30.24,8.0,NNW,15.0,-,0.00,Snow,Light Snow,330,2013-01-24 08:53:00
4:49 AM,14.0,8.6,79,30.23,1.8,North,13.8,-,0.00,Snow,Light Snow,360,2013-01-24 09:49:00
4:53 AM,14.0,9.0,80,30.29,1.8,North,13.8,-,0.00,Snow,Light Snow,350,2013-01-24 09:53:00
5:00 AM,14.0,8.6,79,30.23,3.0,North,18.4,24.2,0.00,Snow,Light Snow,350,2013-01-24 10:00:00
5:13 AM,14.0,8.6,79,30.25,2.5,NNW,16.1,23.0,0.00,Snow,Light Snow,340,2013-01-24 10:13:00
5:22 AM,12.2,8.6,85,30.26,4.0,NNW,16.1,23.0,0.00,Snow,Light Snow,340,2013-01-24 10:22:00
5:53 AM,12.0,8.1,84,30.35,5.0,NNW,16.1,-,0.00,Snow,Light Snow,340,2013-01-24 10:53:00
6:53 AM,10.0,6.1,84,30.40,8.0,NNW,10.4,-,0.00,,Overcast,340,2013-01-24 11:53:00
7:53 AM,7.0,3.0,84,30.46,10.0,NNW,9.2,-,N/A,,Scattered Clouds,330,2013-01-24 12:53:00
8:53 AM,6.1,3.0,87,30.50,10.0,NW,5.8,-,N/A,,Clear,310,2013-01-24 13:53:00
9:53 AM,10.0,3.9,76,30.54,10.0,NNW,9.2,-,N/A,,Clear,340,2013-01-24 14:53:00
10:41 AM,12.2,6.8,79,30.51,10.0,North,8.1,-,N/A,,Mostly Cloudy,360,2013-01-24 15:41:00
10:53 AM,12.9,7.0,77,30.58,10.0,North,6.9,-,N/A,,Overcast,360,2013-01-24 15:53:00
11:53 AM,15.1,9.0,77,30.61,9.0,NNE,11.5,-,N/A,,Overcast,20,2013-01-24 16:53:00
12:51 PM,17.6,10.4,73,30.52,10.0,NNE,6.9,-,N/A,,Scattered Clouds,30,2013-01-24 17:51:00
12:53 PM,17.1,9.0,71,30.59,10.0,NNE,8.1,-,N/A,,Scattered Clouds,20,2013-01-24 17:53:00
1:53 PM,19.0,9.0,65,30.57,10.0,NE,3.5,-,N/A,,Scattered Clouds,50,2013-01-24 18:53:00
2:53 PM,19.9,9.0,62,30.57,10.0,ENE,4.6,-,N/A,,Partly Cloudy,60,2013-01-24 19:53:00
3:53 PM,19.0,7.0,59,30.58,10.0,North,4.6,-,N/A,,Partly Cloudy,360,2013-01-24 20:53:00
4:53 PM,17.1,7.0,65,30.58,10.0,ENE,3.5,-,N/A,,Clear,60,2013-01-24 21:53:00
5:53 PM,17.1,6.1,62,30.58,10.0,Calm,Calm,-,N/A,,Clear,0,2013-01-24 22:53:00
6:53 PM,14.0,6.1,71,30.59,10.0,Calm,Calm,-,N/A,,Clear,0,2013-01-24 23:53:00
7:53 PM,12.9,6.1,74,30.60,10.0,Calm,Calm,-,N/A,,Clear,0,2013-01-25 00:53:00
8:53 PM,12.0,5.0,73,30.57,10.0,East,4.6,-,N/A,,Clear,90,2013-01-25 01:53:00
9:53 PM,14.0,7.0,74,30.55,10.0,East,5.8,-,N/A,,Clear,100,2013-01-25 02:53:00
10:53 PM,15.1,7.0,70,30.55,10.0,SE,6.9,-,N/A,,Clear,130,2013-01-25 03:53:00
11:53 PM,15.1,7.0,70,30.53,10.0,SE,6.9,-,N/A,,Clear,130,2013-01-25 04:53:00